Location: Pic du Midi - T1M
(42.9366°N, 0.1426°E)
Time: 11:14:19
(UTC+01:00)

X-37B - Pass Details

Date: 23 June 2021
Orbit: 383 x 392 km, 45.0° (Epoch: 01 July)

Event Time Altitude Azimuth Distance (km) Brightness Sun altitude
Exits shadow 03:22:05 32° 161° (SSE) 675 1.4 -16.2°
Drops below altitude 10° 03:24:10 10° 133° (SE) 1,394 3.3 -16.0°
Sets 03:26:17 0° 127° (SE) 2,246 4.4 -15.8°
